User: anonymous   Login
Location: Unspecified
(0.0000°N, 0.0000°E)
Time: 04:31:24
(UTC+00:00)
Language:

Himawari 4 - Orbit

View from above orbital plane
View from above orbital plane
View from above satellite
View from above satellite

Ground track
Ground track

The orbit data is extracted from the following two-line orbital elements,

1 20217U 89070A   18350.51908869 -.00000081  00000-0  00000+0 0  9998
2 20217  15.8348   8.4760 0042628  73.1319 113.0412  0.97410956105834
Epoch (UTC): 16 December 2018 12:27:29
Eccentricity: 0.0042628
inclination: 15.8348°
perigee height: 36424 km
apogee height: 36791 km
right ascension of ascending node: 8.4760°
argument of perigee: 73.1319°
revolutions per day: 0.97410956
mean anomaly at epoch: 113.0412°
orbit number at epoch: 10583

The dashed part of the orbit path shows where the satellite is in the earth's shadow,  

DLR